Weather History for Clarksville, TN

Change the Weather History Date:

Saturday, August 17, 2013

  Actual Average Record
Temperature  
Mean Temperature 72 °F -  
Max Temperature 78 °F - 103 °F (1988)
Min Temperature 65 °F - 51 °F (2004)
Degree Days  
Heating Degree Days 0    
Month to date heating degree days 0  
Since 1 July heating degree days 0  
Cooling Degree Days 7    
Month to date cooling degree days 165  
Growing Degree Days 20 (Base 50)    
Moisture  
Dew Point 67 °F    
Average Humidity 81    
Maximum Humidity 93    
Minimum Humidity 69    
Precipitation  
Precipitation 0.10 in - 1.15 in (1958)
Month to date precipitation 3.20  
Sea Level Pressure  
Sea Level Pressure 30.09 in    
Wind  
Wind Speed 2 mph (East)    
Max Wind Speed 7 mph    
Max Gust Speed 9 mph    
Visibility 9 miles    
Events Rain , Thunderstorm    
T = Trace of Precipitation, MM = Missing Value Source: NWS Daily Summary

Daily Weather History Graph

Daily Weather History Graph

Search for Another Location

Airport:

Trip Planner

Search our weather history database for the weather conditions in past years. The results will help you decide how hot, cold, wet, or windy it might be!

Date:

Astronomy

Aug. 17, 2013 Rise Set
Actual Time 6:08 AM CDT 7:37 PM CDT
Civil Twilight 5:41 AM CDT 8:04 PM CDT
Nautical Twilight 5:08 AM CDT 8:37 PM CDT
Astronomical Twilight 4:34 AM CDT 9:11 PM CDT
Moon 4:50 PM CDT (8/17) 2:14 AM CDT (8/17)
Length of Visible Light 14h 23m
Length of Day
13h 28m
Waxing Gibbous, 84% of the Moon is Illuminated
Aug 17
Waxing Gibbous
Aug 20
Full
Aug 28
Last Quarter
Sep 5
New
Sep 12
First Quarter

Hourly Weather History & Observations

Time (CDT) Temp. Dew Point Humidity Pressure Visibility Wind Dir Wind Speed Gust Speed Precip Events Conditions
12:52 AM 70.0 °F 66.0 °F 87% 30.08 in 10.0 mi NNE 5.8 mph - N/A   Mostly Cloudy
1:52 AM 68.0 °F 66.0 °F 93% 30.07 in 9.0 mi Calm Calm - N/A   Scattered Clouds
2:48 AM 69.8 °F 66.2 °F 88% 30.08 in 9.0 mi ENE 3.5 mph - N/A Thunderstorm Overcast
2:52 AM 69.1 °F 66.0 °F 90% 30.07 in 9.0 mi Calm Calm - N/A Thunderstorm Overcast
3:03 AM 69.8 °F 66.2 °F 88% 30.08 in 8.0 mi ESE 3.5 mph - N/A   Overcast
3:10 AM 69.8 °F 66.2 °F 88% 30.09 in 7.0 mi SE 3.5 mph - 0.01 in Rain , Thunderstorm Light Thunderstorms and Rain
3:52 AM 68.0 °F 66.0 °F 93% 30.07 in 9.0 mi Calm Calm - 0.02 in Thunderstorm Overcast
3:55 AM 68.0 °F 66.2 °F 94% 30.08 in 8.0 mi Calm Calm - 0.00 in Rain , Thunderstorm Light Rain
4:13 AM 68.0 °F 66.2 °F 94% 30.10 in 10.0 mi Calm Calm - 0.00 in   Overcast
4:43 AM 68.0 °F 66.2 °F 94% 30.08 in 10.0 mi SE 5.8 mph - 0.00 in Rain Light Rain
4:52 AM 66.9 °F 66.0 °F 97% 30.07 in 6.0 mi ESE 4.6 mph - 0.02 in Rain Light Rain
5:52 AM 66.0 °F 64.9 °F 96% 30.08 in 7.0 mi East 4.6 mph - 0.04 in   Scattered Clouds
6:02 AM 66.2 °F 64.4 °F 94% 30.09 in 7.0 mi ENE 3.5 mph - N/A   Scattered Clouds
6:52 AM 66.9 °F 64.9 °F 93% 30.10 in 7.0 mi Calm Calm - N/A   Mostly Cloudy
7:52 AM 68.0 °F 66.0 °F 93% 30.10 in 8.0 mi Calm Calm - N/A   Partly Cloudy
8:02 AM 69.8 °F 66.2 °F 88% 30.11 in 7.0 mi Calm Calm - N/A   Partly Cloudy
8:33 AM 69.8 °F 66.2 °F 88% 30.12 in 8.0 mi East 3.5 mph - N/A   Mostly Cloudy
8:52 AM 70.0 °F 66.9 °F 90% 30.12 in 8.0 mi East 4.6 mph - N/A   Overcast
9:43 AM 71.6 °F 66.2 °F 83% 30.14 in 10.0 mi East 3.5 mph - N/A   Overcast
9:52 AM 71.1 °F 66.0 °F 84% 30.13 in 10.0 mi NNE 3.5 mph - N/A   Overcast
10:17 AM 71.6 °F 66.2 °F 83% 30.15 in 10.0 mi East 4.6 mph - N/A   Overcast
10:47 AM 73.4 °F 66.2 °F 78% 30.15 in 10.0 mi ESE 5.8 mph - 0.00 in   Mostly Cloudy
10:52 AM 73.0 °F 66.0 °F 79% 30.14 in 10.0 mi South 3.5 mph - 0.00 in   Mostly Cloudy
10:59 AM 73.4 °F 66.2 °F 78% 30.14 in 10.0 mi Variable 3.5 mph - N/A   Mostly Cloudy
11:52 AM 73.9 °F 64.0 °F 71% 30.12 in 10.0 mi Calm Calm - N/A   Overcast
12:52 PM 75.0 °F 64.9 °F 71% 30.10 in 10.0 mi Calm Calm - N/A   Mostly Cloudy
1:52 PM 75.9 °F 64.9 °F 69% 30.09 in 10.0 mi Calm Calm - N/A   Overcast
2:52 PM 75.9 °F 66.0 °F 71% 30.07 in 10.0 mi NW 3.5 mph - 0.00 in   Mostly Cloudy
3:52 PM 75.0 °F 66.9 °F 76% 30.06 in 10.0 mi Calm Calm - 0.00 in   Mostly Cloudy
4:52 PM 73.9 °F 69.1 °F 85% 30.06 in 10.0 mi Calm Calm - 0.01 in Rain Light Rain
5:09 PM 73.4 °F 69.8 °F 88% 30.07 in 10.0 mi SW 3.5 mph - 0.00 in Rain , Thunderstorm Light Rain
5:27 PM 73.4 °F 69.8 °F 88% 30.07 in 10.0 mi Calm Calm - 0.00 in   Mostly Cloudy
5:52 PM 73.9 °F 68.0 °F 82% 30.05 in 10.0 mi SSW 3.5 mph - 0.00 in   Partly Cloudy
6:52 PM 73.0 °F 69.1 °F 87% 30.05 in 10.0 mi SW 3.5 mph - N/A   Mostly Cloudy
7:03 PM 71.6 °F 69.8 °F 94% 30.07 in 10.0 mi SW 3.5 mph - N/A Thunderstorm Mostly Cloudy
7:49 PM 71.6 °F 68.0 °F 88% 30.07 in 6.0 mi South 3.5 mph - 0.01 in Rain Light Rain
7:52 PM 71.1 °F 68.0 °F 90% 30.06 in 6.0 mi Calm Calm - 0.01 in Rain Light Rain
8:14 PM 71.6 °F 68.0 °F 88% 30.08 in 10.0 mi Calm Calm - 0.00 in Rain , Thunderstorm Light Thunderstorms and Rain
8:42 PM 69.8 °F 68.0 °F 94% 30.09 in 8.0 mi ENE 3.5 mph - 0.00 in   Overcast
8:52 PM 70.0 °F 68.0 °F 93% 30.09 in 9.0 mi NE 5.8 mph - 0.00 in   Overcast
8:59 PM 69.8 °F 66.2 °F 88% 30.10 in 10.0 mi North 4.6 mph - N/A   Overcast
9:07 PM 69.8 °F 66.2 °F 88% 30.10 in 10.0 mi North 3.5 mph - N/A   Overcast
9:52 PM 69.1 °F 66.9 °F 93% 30.09 in 10.0 mi Calm Calm - N/A   Mostly Cloudy
10:52 PM 68.0 °F 66.9 °F 96% 30.09 in 9.0 mi Calm Calm - N/A   Mostly Cloudy
11:52 PM 66.0 °F 64.9 °F 96% 30.09 in 5.0 mi Calm Calm - N/A   Partly Cloudy